When you browse on this site, cookies collect data to enhance your experience and personalize the content and advertising you see.
Visit our Privacy Policy to learn more. By continuing to use the site, you agree to this use of cookies and data.
  • In Netherlands
  • List of Countries
  • For 7 days
  • Water Temperature
  • Satellite Maps
  • Weather Map
  • Weather Widgets
  • user-avatar
    Login

    Hourly Weather Hobart

    Today, 20 March, Wednesday

    Time Temperature Precipitation Wind Pressure Humidity
    00:00 +18°C° 0 mm 1 mps 751 mmHg 96%
    01:00 +18°C° 0 mm 1 mps 750 mmHg 97%
    02:00 +18°C° 0 mm 1 mps 750 mmHg 97%
    03:00 +18°C° 0 mm 1 mps 750 mmHg 98%
    04:00 +18°C° 0 mm 1 mps 750 mmHg 98%
    05:00 +18°C° 0 mm 1 mps 750 mmHg 97%
    06:00 +18°C° 0 mm 1 mps 750 mmHg 97%
    07:00 +18°C° 0 mm 1 mps 750 mmHg 96%
    08:00 +19°C° 0 mm 1 mps 750 mmHg 92%
    09:00 +20°C° 0 mm 1 mps 750 mmHg 89%
    10:00 +21°C° 0 mm 1 mps 751 mmHg 82%
    11:00 +22°C° 0 mm 1 mps 750 mmHg 77%
    12:00 +23°C° 0 mm 1 mps 750 mmHg 72%
    13:00 +24°C° 0 mm 1 mps 750 mmHg 67%
    14:00 +24°C° 0.1 mm 2 mps 750 mmHg 66%
    15:00 +24°C° 0.1 mm 2 mps 749 mmHg 64%
    16:00 +25°C° 0.1 mm 2 mps 749 mmHg 63%
    17:00 +23°C° 0.1 mm 2 mps 749 mmHg 72%
    18:00 +21°C° 0.1 mm 1 mps 750 mmHg 81%
    19:00 +19°C° 0.1 mm 1 mps 750 mmHg 90%
    20:00 +19°C° 0.1 mm 1 mps 750 mmHg 91%
    21:00 +19°C° 0.1 mm 1 mps 750 mmHg 92%
    22:00 +16°C° 0.1 mm 0 mps 751 mmHg 93%
    23:00 +16°C° 0.1 mm 0 mps 750 mmHg 94%

    Tomorrow, 21 March, Thursday

    Time Temperature Precipitation Wind Pressure Humidity
    00:00 +16°C° 0.1 mm 0 mps 750 mmHg 95%
    01:00 +16°C° 0.1 mm 0 mps 750 mmHg 95%
    02:00 +16°C° 0 mm 0 mps 750 mmHg 96%
    03:00 +15°C° 0 mm 0 mps 750 mmHg 96%
    04:00 +15°C° 0 mm 0 mps 750 mmHg 97%
    05:00 +16°C° 0.1 mm 1 mps 750 mmHg 96%
    06:00 +16°C° 0.1 mm 1 mps 751 mmHg 96%
    07:00 +18°C° 0.1 mm 1 mps 751 mmHg 95%
    08:00 +18°C° 0.1 mm 1 mps 751 mmHg 94%
    09:00 +17°C° 0.1 mm 2 mps 752 mmHg 93%
    10:00 +17°C° 0.1 mm 2 mps 752 mmHg 92%
    11:00 +17°C° 0.1 mm 2 mps 752 mmHg 89%
    12:00 +17°C° 0.1 mm 2 mps 752 mmHg 86%
    13:00 +18°C° 0.1 mm 2 mps 752 mmHg 84%
    14:00 +17°C° 0 mm 2 mps 752 mmHg 83%
    15:00 +17°C° 0 mm 2 mps 752 mmHg 82%
    16:00 +17°C° 0 mm 2 mps 751 mmHg 82%
    17:00 +16°C° 0 mm 2 mps 752 mmHg 83%
    18:00 +16°C° 0 mm 2 mps 752 mmHg 85%
    19:00 +15°C° 0 mm 2 mps 752 mmHg 86%
    20:00 +15°C° 0 mm 2 mps 753 mmHg 87%
    21:00 +15°C° 0 mm 2 mps 753 mmHg 87%
    22:00 +15°C° 0 mm 1 mps 753 mmHg 88%
    23:00 +14°C° 0 mm 1 mps 753 mmHg 89%

    Day after tomorrow, 22 March, Friday

    Time Temperature Precipitation Wind Pressure Humidity
    00:00 +14°C° 0 mm 1 mps 753 mmHg 90%
    01:00 +14°C° 0 mm 1 mps 753 mmHg 91%
    02:00 +14°C° 0 mm 1 mps 753 mmHg 91%
    03:00 +14°C° 0 mm 1 mps 752 mmHg 91%
    04:00 +14°C° 0 mm 1 mps 752 mmHg 91%
    05:00 +13°C° 0 mm 0 mps 752 mmHg 91%
    06:00 +13°C° 0 mm 0 mps 753 mmHg 91%
    07:00 +13°C° 0 mm 0 mps 753 mmHg 91%
    08:00 +14°C° 0 mm 0 mps 753 mmHg 85%
    09:00 +16°C° 0 mm 1 mps 753 mmHg 78%
    10:00 +19°C° 0 mm 1 mps 753 mmHg 72%
    11:00 +19°C° 0 mm 1 mps 752 mmHg 69%
    12:00 +20°C° 0 mm 1 mps 752 mmHg 66%
    13:00 +21°C° 0 mm 1 mps 751 mmHg 63%
    14:00 +21°C° 0 mm 1 mps 751 mmHg 62%
    15:00 +20°C° 0 mm 2 mps 750 mmHg 62%
    16:00 +20°C° 0 mm 2 mps 750 mmHg 62%
    17:00 +18°C° 0 mm 2 mps 750 mmHg 69%
    18:00 +17°C° 0 mm 2 mps 750 mmHg 77%
    19:00 +15°C° 0 mm 2 mps 750 mmHg 84%
    20:00 +14°C° 0 mm 1 mps 750 mmHg 88%
    21:00 +14°C° 0 mm 1 mps 750 mmHg 92%
    22:00 +13°C° 0 mm 1 mps 750 mmHg 96%
    23:00 +13°C° 0 mm 1 mps 749 mmHg 96%

    23 March, Saturday

    Time Temperature Precipitation Wind Pressure Humidity
    00:00 +13°C° 0 mm 1 mps 749 mmHg 96%
    01:00 +13°C° 0 mm 2 mps 748 mmHg 96%
    02:00 +14°C° 0 mm 2 mps 748 mmHg 95%
    03:00 +14°C° 0 mm 2 mps 747 mmHg 94%
    04:00 +15°C° 0 mm 2 mps 747 mmHg 92%
    05:00 +14°C° 0 mm 2 mps 746 mmHg 93%
    06:00 +14°C° 0 mm 2 mps 746 mmHg 94%
    07:00 +14°C° 0 mm 2 mps 745 mmHg 95%
    08:00 +16°C° 0 mm 3 mps 745 mmHg 85%
    09:00 +18°C° 0 mm 3 mps 744 mmHg 74%
    10:00 +20°C° 0 mm 4 mps 744 mmHg 64%
    11:00 +21°C° 0 mm 4 mps 743 mmHg 60%
    12:00 +22°C° 0 mm 4 mps 742 mmHg 56%
    13:00 +23°C° 0 mm 4 mps 741 mmHg 52%
    14:00 +21°C° 0.3 mm 4 mps 740 mmHg 63%
    15:00 +20°C° 0.3 mm 4 mps 739 mmHg 73%
    16:00 +19°C° 0.3 mm 3 mps 738 mmHg 83%
    17:00 +18°C° 0.4 mm 3 mps 738 mmHg 87%
    18:00 +18°C° 0.4 mm 3 mps 738 mmHg 90%
    19:00 +17°C° 0.4 mm 2 mps 738 mmHg 94%
    20:00 +17°C° 0 mm 2 mps 738 mmHg 94%
    21:00 +17°C° 0 mm 2 mps 738 mmHg 94%
    22:00 +17°C° 0 mm 2 mps 738 mmHg 94%
    23:00 +17°C° 0 mm 2 mps 738 mmHg 92%

    24 March, Sunday

    Time Temperature Precipitation Wind Pressure Humidity
    00:00 +17°C° 0 mm 2 mps 738 mmHg 90%
    01:00 +17°C° 0 mm 3 mps 738 mmHg 89%
    02:00 +16°C° 0 mm 2 mps 738 mmHg 90%
    03:00 +15°C° 0 mm 2 mps 738 mmHg 91%
    04:00 +14°C° 0 mm 2 mps 739 mmHg 92%
    05:00 +14°C° 0 mm 2 mps 739 mmHg 92%
    06:00 +14°C° 0 mm 2 mps 740 mmHg 91%
    07:00 +14°C° 0 mm 2 mps 740 mmHg 91%
    08:00 +16°C° 0.1 mm 2 mps 740 mmHg 81%
    09:00 +18°C° 0.1 mm 2 mps 740 mmHg 71%
    10:00 +20°C° 0.1 mm 2 mps 741 mmHg 61%
    11:00 +21°C° 0 mm 2 mps 740 mmHg 56%
    12:00 +23°C° 0 mm 2 mps 739 mmHg 51%
    13:00 +24°C° 0 mm 2 mps 739 mmHg 45%
    14:00 +24°C° 0 mm 2 mps 738 mmHg 46%
    15:00 +24°C° 0 mm 2 mps 737 mmHg 46%
    16:00 +24°C° 0 mm 2 mps 737 mmHg 47%
    17:00 +21°C° 0 mm 3 mps 736 mmHg 52%
    18:00 +19°C° 0 mm 3 mps 736 mmHg 58%
    19:00 +17°C° 0 mm 3 mps 735 mmHg 64%
    20:00 +17°C° 0 mm 3 mps 734 mmHg 66%
    21:00 +16°C° 0 mm 3 mps 734 mmHg 68%
    22:00 +14°C° 0 mm 3 mps 733 mmHg 70%
    23:00 +16°C° 0.5 mm 3 mps 732 mmHg 76%

    25 March, Monday

    Time Temperature Precipitation Wind Pressure Humidity
    00:00 +15°C° 0.5 mm 4 mps 730 mmHg 82%
    01:00 +15°C° 0.5 mm 4 mps 729 mmHg 88%
    02:00 +14°C° 0.7 mm 5 mps 729 mmHg 86%
    03:00 +13°C° 0.7 mm 6 mps 728 mmHg 84%
    04:00 +10°C° 0.7 mm 6 mps 728 mmHg 82%
    05:00 +9°C° 0.4 mm 6 mps 729 mmHg 81%
    06:00 +8°C° 0.4 mm 6 mps 730 mmHg 79%
    07:00 +5°C° 0.4 mm 6 mps 731 mmHg 78%
    08:00 +8°C° 0.1 mm 7 mps 730 mmHg 71%
    09:00 +8°C° 0.1 mm 9 mps 730 mmHg 64%
    10:00 +9°C° 0.1 mm 10 mps 729 mmHg 57%
    11:00 +11°C° 0.1 mm 10 mps 729 mmHg 56%
    12:00 +11°C° 0.1 mm 11 mps 729 mmHg 55%
    13:00 +11°C° 0.1 mm 11 mps 728 mmHg 54%
    14:00 +11°C° 0.9 mm 11 mps 729 mmHg 60%
    15:00 +9°C° 0.9 mm 10 mps 729 mmHg 65%
    16:00 +8°C° 0.9 mm 10 mps 729 mmHg 71%
    17:00 +9°C° 0.7 mm 10 mps 730 mmHg 75%
    18:00 +9°C° 0.7 mm 10 mps 731 mmHg 78%
    19:00 +9°C° 0.7 mm 10 mps 732 mmHg 81%
    20:00 +10°C° 0.2 mm 9 mps 734 mmHg 79%
    21:00 +9°C° 0.2 mm 8 mps 735 mmHg 78%
    22:00 +9°C° 0.2 mm 7 mps 737 mmHg 77%
    23:00 +9°C° 0.3 mm 7 mps 738 mmHg 78%
    Show more